SCP
0 0 0 0 0 0 0 0 0 0 0 0 0 0 0 1 1 1 1 1 1 1 1 1 1 1 1 1 1 1 1 1 2 2 2 3 3 3 2 2 2 1 1
0 0 0 0 0 0 0 0 0 0 0 0 0 0 0 1 1 1 1 1 1 1 1 1 1 1 1 1 1 1 1 1 1 2 2 2 3 3 2 2 1 1 1
0 0 0 0 0 0 0 0 0 0 0 0 0 0 0 0 1 1 1 1 1 1 1 1 1 1 1 1 1 1 1 1 1 1 2 2 3 2 2 1 1 1 1
0 0 0 0 0 0 0 0 0 0 0 0 0 0 0 0 0 1 1 1 1 1 1 1 1 1 1 1 1 1 1 1 1 1 2 2 2 2 2 1 1 1 1
0 0 0 0 0 0 0 0 0 0 0 0 0 0 0 0 0 0 1 1 1 1 1 1 1 1 1 1 1 1 1 1 1 1 2 2 2 1 1 1 1 1 1
0 0 0 0 0 0 0 0 0 0 0 0 0 0 0 0 0 0 1 1 1 1 1 1 1 1 1 1 1 1 1 1 1 1 1 2 1 1 1 1 1 1 1
0 0 0 0 0 0 0 0 0 0 0 0 0 0 0 0 0 0 0 0 0 0 0 0 1 1 1 1 1 1 1 1 1 1 1 1 1 1 1 1 1 1 1
0 0 0 0 0 0 0 0 0 0 0 0 0 0 0 0 0 0 0 0 0 0 0 0 0 1 1 1 1 1 1 1 1 1 1 1 1 1 1 1 1 1 1
0 0 0 0 0 0 0 0 0 0 0 0 0 0 0 0 0 0 0 0 0 0 0 0 0 0 1 1 1 1 1 1 1 1 1 1 1 1 1 1 1 1 1
0 0 0 0 0 0 0 0 0 0 0 0 0 0 0 0 0 0 0 0 1 1 0 0 0 0 1 1 1 1 1 0 1 1 1 1 1 1 1 1 1 1 1
0 0 0 0 0 0 0 0 0 0 0 0 0 0 0 0 0 0 0 0 0 1 1 0 0 1 1 1 1 1 0 0 0 1 1 1 1 1 1 1 1 1 1
0 0 0 0 0 0 0 0 0 0 0 0 0 0 0 0 0 0 0 0 0 0 1 1 1 1 1 1 1 1 0 0 0 1 1 1 1 1 1 1 1 1 1
0 0 0 0 0 0 0 0 0 0 0 0 0 0 0 0 0 0 0 0 0 0 0 0 1 1 1 1 1 1 0 0 0 0 1 1 1 1 1 1 1 1 1
0 0 0 0 0 0 0 0 0 0 0 0 0 0 0 0 0 0 0 0 0 0 0 0 1 1 1 1 1 1 1 1 1 0 0 0 0 1 1 1 1 1 1
0 0 0 0 0 0 0 0 0 0 0 0 0 0 0 0 0 0 0 0 0 0 0 0 0 1 1 1 1 1 1 1 1 0 0 0 0 0 1 1 1 1 1
0 0 0 0 0 0 0 0 0 0 0 0 0 0 0 0 0 0 0 0 0 0 0 0 0 0 1 1 1 1 1 1 0 0 0 0 0 0 0 0 0 0 0
0 0 0 0 0 0 0 0 0 0 0 0 0 0 0 0 0 0 0 0 0 0 0 0 0 0 0 0 0 0 1 0 0 0 0 0 0 0 0 0 0 0 0
0 0 0 0 0 0 0 0 0 0 0 0 0 0 0 0 0 0 0 0 0 0 0 0 0 0 0 0 0 0 0 0 0 0 0 0 0 0 0 0 0 0 0
0 0 0 0 0 0 0 0 0 0 0 0 0 0 0 0 0 0 0 0 0 0 0 0 0 0 0 0 0 0 0 0 0 0 0 0 0 0 0 0 0 0 0
0 0 0 0 0 0 0 0 0 0 0 0 0 0 0 0 0 0 0 0 0 0 0 0 0 0 0 0 0 0 0 0 0 0 0 0 0 0 0 0 0 0 0
0 0 0 0 0 0 0 0 0 0 0 0 0 0 0 0 0 0 0 0 0 0 0 0 0 0 0 0 0 0 0 0 0 0 0 0 0 0 0 0 0 0 0
0 0 0 0 0 0 0 0 0 0 0 0 0 0 0 0 0 0 0 0 0 0 0 0 0 0 0 0 0 0 0 0 0 0 0 0 0 0 0 0 0 0 0
0 0 0 0 0 0 0 0 0 0 0 0 0 0 0 0 0 0 0 0 0 0 0 0 0 0 0 0 0 0 0 0 0 0 0 0 0 0 0 0 0 0 0
0 0 0 1 1 1 0 0 0 0 0 0 0 0 0 0 0 0 0 0 0 0 0 0 0 0 0 0 0 0 0 0 0 0 0 0 0 0 0 0 0 0 0
0 0 0 1 1 1 0 0 0 0 0 0 0 0 0 0 0 0 0 0 0 0 0 0 0 0 0 0 0 0 0 0 0 0 0 0 0 0 0 0 0 0 0
0 0 0 1 1 1 0 0 0 0 0 0 0 0 0 0 0 0 0 0 0 0 0 0 0 0 0 0 0 0 0 0 0 0 0 0 0 0 0 0 0 0 0
Wind_Speed
3 3 3 3 3 3 2 2 3 4 4 4 4 5 5 5 5 4 5 9 8 8 8 7 8 8 7 6 6 6 5 4 5 4 4 4 3 3 4 3 2 1 1
3 3 4 3 3 3 3 3 4 3 4 4 5 5 5 5 5 5 5 6 9 9 9 9 9 9 9 8 7 7 6 6 5 4 4 4 4 3 3 3 3 2 2
4 4 3 3 3 3 3 3 4 3 4 4 4 5 5 5 5 6 6 4 5 8 9 10 10 10 10 10 9 8 7 6 5 5 4 4 4 4 4 4 3 3 1
5 4 3 3 3 3 2 2 2 3 4 3 4 4 4 4 6 6 5 5 4 5 7 10 11 11 11 11 10 9 9 8 6 5 5 5 5 4 4 4 3 2 2
5 5 4 3 4 3 3 2 3 3 4 3 4 4 4 4 4 5 6 6 6 5 5 7 9 11 12 12 12 10 9 8 7 6 6 6 5 5 4 4 3 3 2
5 4 3 5 4 3 3 3 4 3 3 2 3 4 4 3 4 5 5 5 6 6 6 5 4 7 11 12 13 12 10 9 8 7 7 6 5 5 5 4 3 3 3
5 5 4 5 4 4 4 4 3 3 3 2 2 3 4 4 5 4 4 4 5 6 6 6 5 4 4 9 12 13 12 10 9 8 7 7 6 5 4 4 3 3 3
5 4 5 4 4 3 4 4 3 2 3 2 1 0 2 4 3 4 4 4 5 4 5 6 6 6 5 4 8 12 12 10 9 7 6 6 6 5 5 4 4 4 3
5 5 5 4 4 4 4 4 3 3 2 3 4 3 2 2 2 3 5 4 5 4 4 5 6 6 6 5 5 8 10 10 9 8 7 6 6 6 6 6 5 4 4
5 5 5 4 4 4 4 4 4 3 2 2 3 3 4 4 2 2 3 4 5 5 5 5 5 6 6 5 6 9 9 9 9 8 8 7 7 6 5 6 6 5 5
5 5 4 4 4 4 5 5 4 4 3 3 3 2 3 2 3 2 2 2 3 4 4 5 5 5 6 6 5 9 9 8 8 7 8 7 7 7 6 6 5 5 5
3 5 4 4 4 4 4 4 4 5 4 5 4 4 3 3 3 3 2 2 2 3 4 4 5 5 5 5 7 10 9 8 8 8 8 7 7 7 7 7 7 6 6
3 3 3 4 4 4 4 4 4 4 5 5 4 4 4 4 4 3 3 2 2 2 2 3 4 4 4 4 5 7 7 8 8 8 8 8 8 7 7 7 7 7 7
3 3 3 4 4 4 4 4 3 4 4 4 5 4 3 4 4 3 3 3 1 2 2 4 3 4 4 4 6 5 5 8 8 8 8 7 7 7 7 8 8 8 8
3 3 3 4 4 4 4 4 3 4 4 4 4 4 4 3 3 4 3 4 4 2 2 3 3 4 4 4 5 4 5 8 7 7 7 8 8 7 7 7 7 8 8
3 4 3 3 4 4 3 3 3 3 4 4 3 4 4 3 3 3 3 3 4 4 3 3 3 4 5 4 5 5 5 4 5 6 7 7 7 7 7 7 7 7 8
4 4 3 3 3 3 3 3 3 3 3 3 3 3 4 4 3 3 3 3 3 3 2 2 2 3 4 5 4 4 4 4 4 5 6 7 7 7 7 7 7 7 8
3 3 3 3 3 3 3 3 3 3 3 3 3 3 3 3 3 3 3 3 3 4 3 3 3 3 5 5 5 5 4 4 4 4 4 5 6 6 6 7 7 7 7
4 3 3 3 3 3 2 2 2 2 3 3 3 4 4 4 3 3 3 3 3 3 3 3 3 3 3 4 5 5 5 4 4 3 2 2 4 5 6 6 6 7 7
4 4 3 3 3 2 2 2 2 2 3 3 4 4 5 5 5 5 3 4 4 3 3 3 3 3 3 5 5 5 5 5 5 4 4 4 3 4 4 4 5 7 7
3 3 3 3 3 2 2 2 2 2 2 3 4 4 6 6 8 6 5 5 5 4 3 3 3 4 4 5 5 6 6 6 5 4 6 5 5 5 4 3 4 7 7
4 4 4 4 3 3 4 3 2 1 1 2 2 3 3 3 4 4 5 6 7 6 5 4 4 5 6 6 6 6 7 7 6 5 7 7 5 6 5 5 5 6 8
4 4 4 4 3 4 4 2 1 1 1 2 2 2 2 2 2 3 1 1 2 3 5 6 6 6 7 7 8 8 7 8 8 6 7 8 6 6 6 4 3 6 8
5 4 4 4 3 4 4 3 1 1 1 1 2 2 2 3 4 5 4 4 4 4 4 5 5 6 7 8 8 8 9 9 8 5 5 8 7 7 7 6 2 5 7
5 4 4 4 4 4 4 3 3 1 1 1 2 3 3 3 5 6 5 4 4 3 1 2 5 5 6 7 8 7 7 7 7 6 5 7 8 9 8 7 4 4 6
5 4 4 4 3 3 4 3 3 1 1 0 1 1 3 4 5 6 4 4 5 5 6 4 4 5 5 4 6 7 6 7 8 7 5 7 8 9 8 6 6 6 6
Wind_Direction
67 70 71 61 51 49 57 57 60 65 62 60 54 57 60 61 60 62 73 67 54 51 49 48 48 44 42 42 39 32 43 51 54 79 96 102 100 123 128 123 108 112 152
62 59 65 54 47 44 39 44 67 68 66 62 57 57 55 58 60 62 63 79 69 55 49 49 48 46 41 41 45 41 50 59 60 67 84 93 95 103 114 111 102 94 84
57 60 58 62 53 50 52 45 63 68 76 82 76 63 59 52 62 63 60 53 78 75 56 48 46 47 44 43 47 45 46 50 56 62 77 84 90 95 96 95 85 84 77
59 55 53 55 53 51 53 61 58 72 80 75 74 66 67 59 54 50 56 57 51 60 72 58 51 47 43 40 43 46 41 42 54 71 79 76 77 87 89 85 79 78 68
59 64 47 40 50 49 49 57 61 62 73 73 82 75 62 58 54 49 54 52 57 54 61 77 64 51 44 39 41 42 41 41 54 71 77 74 71 71 76 75 69 64 55
58 60 60 49 47 52 48 55 65 65 68 75 81 80 74 74 61 48 44 53 51 52 51 55 69 71 55 44 40 38 41 45 57 66 67 67 64 64 64 66 64 56 39
57 59 52 53 43 52 44 49 60 79 68 62 114 113 102 79 68 65 46 48 59 54 56 55 49 44 65 62 44 36 36 45 54 59 60 58 54 51 53 55 51 41 28
52 54 57 63 59 61 55 48 46 46 66 25 347 161 133 125 83 67 62 53 52 55 54 54 51 48 38 46 55 41 33 38 48 52 53 52 47 41 34 29 32 28 17
56 52 54 57 55 57 57 49 46 41 49 49 20 350 351 50 99 90 64 58 54 47 52 50 45 41 38 41 42 47 33 33 38 43 45 45 41 34 28 22 12 6 4
66 57 58 59 59 59 62 54 50 47 35 48 57 27 24 20 338 107 99 73 62 52 46 41 39 38 35 42 46 41 31 28 31 34 36 33 31 28 24 17 10 1 349
67 65 60 61 63 61 59 55 51 42 46 36 41 45 47 36 356 4 73 76 77 60 50 44 37 34 32 33 32 37 26 24 25 26 26 22 19 19 14 5 357 353 345
79 73 66 66 65 62 62 58 62 59 53 51 44 42 32 25 17 20 37 62 69 68 58 49 35 31 27 28 36 31 25 24 23 24 23 18 12 10 7 4 358 350 340
91 80 77 72 69 65 65 64 67 63 61 56 49 45 42 35 22 8 12 35 55 87 72 63 42 23 20 21 33 18 38 31 26 22 18 14 8 3 359 352 348 343 340
91 89 88 79 75 71 72 69 66 63 59 57 54 50 47 43 27 18 8 352 7 80 62 48 46 25 15 11 23 343 35 40 26 22 19 17 13 7 -0 353 348 344 341
106 103 97 94 87 77 69 72 67 67 56 50 50 53 45 50 32 24 12 355 346 355 41 41 24 21 8 16 9 1 20 35 19 19 17 12 12 9 5 359 357 354 349
116 115 106 100 98 93 85 75 70 59 65 64 41 40 37 40 37 28 15 10 358 346 0 22 13 7 7 360 15 1 17 22 26 22 11 5 3 2 2 1 1 359 354
132 127 114 108 102 99 95 90 75 68 56 62 57 51 46 33 28 26 14 12 8 355 345 360 4 360 358 355 358 351 352 347 27 35 11 3 1 359 359 359 358 356 354
138 131 121 115 107 103 90 80 75 66 58 54 49 43 43 42 26 18 3 5 4 348 337 338 339 351 353 350 349 342 343 346 345 35 7 358 358 357 356 353 353 355 353
141 139 133 124 115 107 102 87 76 65 60 51 40 35 32 30 24 25 2 3 356 351 337 321 336 347 337 345 342 340 342 335 327 351 336 349 350 342 339 340 343 345 346
144 140 137 132 126 117 106 96 87 71 65 57 46 39 32 25 16 9 4 2 353 345 339 328 332 337 337 342 332 334 332 331 321 333 330 315 296 284 297 317 336 339 339
145 140 139 132 122 117 78 56 81 79 72 67 59 54 48 42 30 14 4 357 351 342 340 336 335 334 341 340 338 329 326 321 320 332 322 316 313 310 306 297 329 341 339
157 152 149 137 128 101 78 40 351 87 74 70 68 65 72 66 58 55 34 12 359 350 344 339 334 335 340 340 331 321 323 320 318 335 318 313 315 311 314 320 355 343 335
160 160 151 141 135 116 115 110 344 339 58 44 32 42 39 39 349 14 41 214 28 5 335 324 328 333 332 335 327 322 320 315 311 321 316 304 308 305 307 318 338 325 323
156 163 153 149 143 127 131 141 223 221 88 67 33 14 5 10 19 347 336 342 355 356 344 325 330 332 333 331 324 317 311 305 299 300 310 300 308 308 306 298 289 306 307
159 164 154 159 161 145 139 162 229 180 146 62 40 19 358 4 21 333 315 327 330 337 357 305 318 310 310 310 311 307 312 309 310 310 320 304 308 309 299 290 284 264 276
162 164 159 167 166 152 134 162 240 222 215 134 60 55 46 7 5 334 318 324 325 332 323 308 291 281 292 298 294 304 315 312 312 310 329 314 311 313 301 295 304 303 294